Showing default

YINHE-1, 45024

Orbit data source: Space-Track

YINHE-1, 45024 is a payload satellite owned by Yinhe (CN) in LEO that was launched on Thu, 16 Jan 2020 UTC via a KUAIZHOU-1A launch vehicle from the Jiuquan Satellite Launch Center, China (JSC). Payload-class satellites include a variety of spacecraft equipped with specific instruments for various scientific and technological missions. These include communications satellites like Starlink; space stations such as the ISS; scientific satellites like the Hubble; Earth observation satellites from companies like Planet Labs, Umbra, and HawkEye 360; GPS; miniature CubeSats for education and research; and military/defense satellites.

Loading next visibility...
Identifier
45024, 2020-004A
Orbit
LEO
Country
Flag of CNCN / PRC
Related business
Manufacturer
Yinhe
Mission
Operational Commercial Communications
Bus & Motor
YH, Unknown motor
Mass
227 kg wet, ~200 kg dry
Launch date (UTC)
2020-01-16 (6 years ago)
Launch vehicle
KUAIZHOU-1A
Launch site
Jiuquan Satellite Launch Center, China (JSC)
Object type
Payload
Rocket body
Debris
Shape & HBR
Box + 1 Pan, Unknown HBR
Radar Cross Section
3.313 m², Large (>1 m²)

Expand to show TLE details & history
Last TLE update: 10 hours ago

TLE from 10 hours ago
0 YINHE-1
1 45024U 20004A   25261.94862615  .00000797  00000-0  10527-3 0  9999
2 45024  86.3915 237.2947 0011701 222.9126 137.1182 14.78603993305839
Epoch: 2025-09-18T22:46Z
TLE epoch observation values (Epoch: 2025-09-18T22:46:01.299Z)
Latitude
-0.00006°
Longitude
-102.31361°
Altitude
642.865 km
Speed
7.533 km/s
True Right ascension
15h 49m 10s
True Declination
0° 00' 00"
Sunlit
Object was in daylight at epoch
Visualization orbit readout
Latitude
Unknown
Longitude
Unknown
Altitude
Unknown
Speed
Unknown
Apparent Right ascension
Unknown
Apparent Declination
Unknown
Sunlit
N/A
Visualization observer readout
Local Sidereal Time
01:47:31
Azimuth
Unknown
Elevation
Unknown
Doppler factor
Unknown
Orbital elements
Apogee altitude
638.837 km
Perigee altitude
622.435 km
Semi-major axis
7,008.773 km
Eccentricity
0.00117
Inclination
86.3915°
RAAN
237.2947°
Arg. of periapsis
222.9126°
True anomaly
137.20934°
Mean anomaly
137.1182°
Eccentric anomaly
137.16378°
Mean motion
3.69896 °/min
Orbital period
97.32 mins
BSTAR
0.00010527
Loading maneuver chart data...
Computing Atmospheric mass density...
Loading historical data...
Loading historical data...
Loading historical data...
Loading historical data...
Loading historical data...
Loading historical data...
Loading historical data...
Other satellites on launch #4 in the year 2020 (2020-01-16 UTC)

Documentation

Showing up to 5 results
|